date,time,SUV Intensity [MED/Hr],UV Index,Daily total [MED],Since Last [MED]
16/07/2022,00:10:27,-0.001,0.0,0.0,0.0
16/07/2022,00:11:26,0.000,0.0,0.0,0.0
16/07/2022,00:12:35,0.001,0.0,0.0,0.0
16/07/2022,00:13:27,0.000,0.0,0.0,0.0
16/07/2022,00:14:27,0.000,0.0,0.0,0.0
16/07/2022,00:15:27,0.001,0.0,0.0,0.0
16/07/2022,00:16:27,0.000,0.0,0.0,0.0
16/07/2022,00:17:26,-0.001,0.0,0.0,0.0
16/07/2022,00:18:27,0.000,0.0,0.0,0.0
16/07/2022,00:19:27,0.000,0.0,0.0,0.0
16/07/2022,00:20:27,-0.000,0.0,0.0,0.0
16/07/2022,00:21:27,-0.001,0.0,0.0,0.0
16/07/2022,00:22:27,0.000,0.0,0.0,0.0
16/07/2022,00:23:27,0.000,0.0,0.0,0.0
16/07/2022,00:24:27,0.001,0.0,0.0,0.0
16/07/2022,00:25:26,0.000,0.0,0.0,0.0
16/07/2022,00:26:27,0.000,0.0,0.0,0.0
16/07/2022,00:27:27,-0.001,0.0,0.0,0.0
16/07/2022,00:28:27,0.000,0.0,0.0,0.0
16/07/2022,00:29:25,0.000,0.0,0.0,0.0
16/07/2022,00:30:27,0.000,0.0,0.0,0.0
16/07/2022,00:31:26,-0.000,0.0,0.0,0.0
16/07/2022,00:32:27,0.000,0.0,0.0,0.0
16/07/2022,00:33:35,0.000,0.0,0.0,0.0
16/07/2022,00:34:27,0.000,0.0,0.0,0.0
16/07/2022,00:35:27,0.001,0.0,0.0,0.0
16/07/2022,00:36:35,0.000,0.0,0.0,0.0
16/07/2022,00:37:27,-0.000,0.0,0.0,0.0
16/07/2022,00:38:27,0.000,0.0,0.0,0.0
16/07/2022,00:39:27,-0.001,0.0,0.0,0.0
16/07/2022,00:40:27,0.000,0.0,0.0,0.0
16/07/2022,00:41:20,-0.001,0.0,0.0,0.0
16/07/2022,00:42:28,0.000,0.0,0.0,0.0
16/07/2022,00:43:27,0.000,0.0,0.0,0.0
16/07/2022,00:44:27,0.000,0.0,0.0,0.0
16/07/2022,00:45:26,0.000,0.0,0.0,0.0
16/07/2022,00:46:27,0.000,0.0,0.0,0.0
16/07/2022,00:47:27,-0.000,0.0,0.0,0.0
16/07/2022,00:48:27,0.000,0.0,0.0,0.0
16/07/2022,00:49:27,-0.000,0.0,0.0,0.0
16/07/2022,00:50:27,0.000,0.0,0.0,0.0
16/07/2022,00:51:27,0.000,0.0,0.0,0.0
16/07/2022,00:52:27,0.000,0.0,0.0,0.0
16/07/2022,00:53:26,-0.000,0.0,0.0,0.0
16/07/2022,00:54:35,0.001,0.0,0.0,0.0
16/07/2022,00:55:26,0.001,0.0,0.0,0.0
16/07/2022,00:56:27,-0.000,0.0,0.0,0.0
16/07/2022,00:57:27,0.000,0.0,0.0,0.0
16/07/2022,00:58:27,0.000,0.0,0.0,0.0
16/07/2022,00:59:27,-0.000,0.0,0.0,0.0
16/07/2022,01:00:27,-0.001,0.0,0.0,0.0
16/07/2022,01:01:26,0.000,0.0,0.0,0.0
16/07/2022,01:02:36,0.000,0.0,0.0,0.0
16/07/2022,01:03:27,0.001,0.0,0.0,0.0
16/07/2022,01:04:27,0.000,0.0,0.0,0.0
16/07/2022,01:05:35,0.001,0.0,0.0,0.0
16/07/2022,01:06:27,0.001,0.0,0.0,0.0
16/07/2022,01:07:27,0.000,0.0,0.0,0.0
16/07/2022,01:08:27,-0.000,0.0,0.0,0.0
16/07/2022,01:09:27,0.000,0.0,0.0,0.0
16/07/2022,01:10:27,0.000,0.0,0.0,0.0
16/07/2022,01:11:26,0.000,0.0,0.0,0.0
16/07/2022,01:12:27,0.001,0.0,0.0,0.0
16/07/2022,01:13:27,-0.000,0.0,0.0,0.0
16/07/2022,01:14:27,-0.001,0.0,0.0,0.0
16/07/2022,01:15:27,0.000,0.0,0.0,0.0
16/07/2022,01:16:28,0.000,0.0,0.0,0.0
16/07/2022,01:17:27,0.000,0.0,0.0,0.0
16/07/2022,01:18:27,0.001,0.0,0.0,0.0
16/07/2022,01:19:27,0.000,0.0,0.0,0.0
16/07/2022,01:20:35,0.001,0.0,0.0,0.0
16/07/2022,01:21:26,-0.001,0.0,0.0,0.0
16/07/2022,01:22:27,-0.001,0.0,0.0,0.0
16/07/2022,01:23:35,0.000,0.0,0.0,0.0
16/07/2022,01:24:27,0.000,0.0,0.0,0.0
16/07/2022,01:25:27,0.000,0.0,0.0,0.0
16/07/2022,01:26:35,0.000,0.0,0.0,0.0
16/07/2022,01:27:28,0.000,0.0,0.0,0.0
16/07/2022,01:28:27,0.001,0.0,0.0,0.0
16/07/2022,01:29:27,0.000,0.0,0.0,0.0
16/07/2022,01:30:27,0.000,0.0,0.0,0.0
16/07/2022,01:31:27,0.001,0.0,0.0,0.0
16/07/2022,01:32:26,0.000,0.0,0.0,0.0
16/07/2022,01:33:27,0.000,0.0,0.0,0.0
16/07/2022,01:34:27,0.000,0.0,0.0,0.0
16/07/2022,01:35:27,-0.000,0.0,0.0,0.0
16/07/2022,01:36:27,0.000,0.0,0.0,0.0
16/07/2022,01:37:27,0.000,0.0,0.0,0.0
16/07/2022,01:38:27,0.000,0.0,0.0,0.0
16/07/2022,01:39:27,0.001,0.0,0.0,0.0
16/07/2022,01:40:27,0.001,0.0,0.0,0.0
16/07/2022,01:41:35,0.000,0.0,0.0,0.0
16/07/2022,01:42:26,0.000,0.0,0.0,0.0
16/07/2022,01:43:27,0.000,0.0,0.0,0.0
16/07/2022,01:44:36,0.001,0.0,0.0,0.0
16/07/2022,01:46:27,0.000,0.0,0.0,0.0
16/07/2022,01:47:27,0.000,0.0,0.0,0.0
16/07/2022,01:48:27,0.000,0.0,0.0,0.0
16/07/2022,01:49:27,0.001,0.0,0.0,0.0
16/07/2022,01:50:27,0.000,0.0,0.0,0.0
16/07/2022,01:51:27,-0.000,0.0,0.0,0.0
16/07/2022,01:52:27,0.001,0.0,0.0,0.0
16/07/2022,01:53:27,0.000,0.0,0.0,0.0
16/07/2022,01:54:27,0.001,0.0,0.0,0.0
16/07/2022,01:55:27,-0.000,0.0,0.0,0.0
16/07/2022,01:56:27,0.000,0.0,0.0,0.0
16/07/2022,01:57:27,0.000,0.0,0.0,0.0
16/07/2022,01:58:27,0.000,0.0,0.0,0.0
16/07/2022,01:59:27,0.000,0.0,0.0,0.0
16/07/2022,02:00:27,0.000,0.0,0.0,0.0
16/07/2022,02:01:27,-0.000,0.0,0.0,0.0
16/07/2022,02:02:27,0.001,0.0,0.0,0.0
16/07/2022,02:03:27,0.000,0.0,0.0,0.0
16/07/2022,02:04:27,0.001,0.0,0.0,0.0
16/07/2022,02:05:27,0.000,0.0,0.0,0.0
16/07/2022,02:06:27,0.000,0.0,0.0,0.0
16/07/2022,02:07:27,0.000,0.0,0.0,0.0
16/07/2022,02:08:35,0.001,0.0,0.0,0.0
16/07/2022,02:09:27,0.000,0.0,0.0,0.0
16/07/2022,02:10:36,0.000,0.0,0.0,0.0
16/07/2022,02:11:27,0.001,0.0,0.0,0.0
16/07/2022,02:12:27,0.000,0.0,0.0,0.0
16/07/2022,02:13:27,0.000,0.0,0.0,0.0
16/07/2022,02:14:27,0.001,0.0,0.0,0.0
16/07/2022,02:15:27,0.001,0.0,0.0,0.0
16/07/2022,02:16:27,0.001,0.0,0.0,0.0
16/07/2022,02:17:27,-0.000,0.0,0.0,0.0
16/07/2022,02:18:27,0.001,0.0,0.0,0.0
16/07/2022,02:19:27,0.001,0.0,0.0,0.0
16/07/2022,02:20:28,0.000,0.0,0.0,0.0
16/07/2022,02:21:27,0.000,0.0,0.0,0.0
16/07/2022,02:22:27,-0.000,0.0,0.0,0.0
16/07/2022,02:23:27,0.001,0.0,0.0,0.0
16/07/2022,02:24:27,0.001,0.0,0.0,0.0
16/07/2022,02:25:27,0.001,0.0,0.0,0.0
16/07/2022,02:26:27,0.000,0.0,0.0,0.0
16/07/2022,02:27:27,0.001,0.0,0.0,0.0
16/07/2022,02:28:27,0.002,0.0,0.0,0.0
16/07/2022,02:29:27,0.001,0.0,0.0,0.0
16/07/2022,02:30:27,0.001,0.0,0.0,0.0
16/07/2022,02:31:36,0.001,0.0,0.0,0.0
16/07/2022,02:33:28,0.001,0.0,0.0,0.0
16/07/2022,02:34:27,-0.000,0.0,0.0,0.0
16/07/2022,02:35:27,0.000,0.0,0.0,0.0
16/07/2022,02:36:28,0.001,0.0,0.0,0.0
16/07/2022,02:37:27,0.001,0.0,0.0,0.0
16/07/2022,02:38:27,0.001,0.0,0.0,0.0
16/07/2022,02:39:27,0.000,0.0,0.0,0.0
16/07/2022,02:40:27,0.001,0.0,0.0,0.0
16/07/2022,02:41:27,0.001,0.0,0.0,0.0
16/07/2022,02:42:27,0.001,0.0,0.0,0.0
16/07/2022,02:43:27,-0.000,0.0,0.0,0.0
16/07/2022,02:44:27,0.000,0.0,0.0,0.0
16/07/2022,02:45:27,0.001,0.0,0.0,0.0
16/07/2022,02:46:27,-0.000,0.0,0.0,0.0
16/07/2022,02:47:27,0.001,0.0,0.0,0.0
16/07/2022,02:48:27,0.001,0.0,0.0,0.0
16/07/2022,02:49:35,0.001,0.0,0.0,0.0
16/07/2022,02:50:27,0.001,0.0,0.0,0.0
16/07/2022,02:51:27,0.001,0.0,0.0,0.0
16/07/2022,02:52:27,0.001,0.0,0.0,0.0
16/07/2022,02:53:27,0.001,0.0,0.0,0.0
16/07/2022,02:54:28,0.001,0.0,0.0,0.0
16/07/2022,02:55:35,0.001,0.0,0.0,0.0
16/07/2022,02:56:27,0.001,0.0,0.0,0.0
16/07/2022,02:57:27,0.001,0.0,0.0,0.0
16/07/2022,02:58:35,0.001,0.0,0.0,0.0
16/07/2022,02:59:27,0.002,0.0,0.0,0.0
16/07/2022,03:00:27,0.001,0.0,0.0,0.0
16/07/2022,03:01:27,0.000,0.0,0.0,0.0
16/07/2022,03:02:27,0.001,0.0,0.0,0.0
16/07/2022,03:03:28,0.000,0.0,0.0,0.0
16/07/2022,03:04:27,0.001,0.0,0.0,0.0
16/07/2022,03:05:27,-0.000,0.0,0.0,0.0
16/07/2022,03:06:27,0.000,0.0,0.0,0.0
16/07/2022,03:07:27,0.001,0.0,0.0,0.0
16/07/2022,03:08:27,0.001,0.0,0.0,0.0
16/07/2022,03:09:28,0.001,0.0,0.0,0.0
16/07/2022,03:10:35,0.001,0.0,0.0,0.0
16/07/2022,03:11:27,0.001,0.0,0.0,0.0
16/07/2022,03:12:27,0.001,0.0,0.0,0.0
16/07/2022,03:13:35,0.001,0.0,0.0,0.0
16/07/2022,03:14:27,0.001,0.0,0.0,0.0
16/07/2022,03:15:18,0.000,0.0,0.0,0.0
16/07/2022,03:16:28,0.001,0.0,0.0,0.0
16/07/2022,03:17:27,0.001,0.0,0.0,0.0
16/07/2022,03:18:27,0.001,0.0,0.0,0.0
16/07/2022,03:19:27,0.001,0.0,0.0,0.0
16/07/2022,03:20:27,0.001,0.0,0.0,0.0
16/07/2022,03:21:27,0.001,0.0,0.0,0.0
16/07/2022,03:22:36,0.000,0.0,0.0,0.0
16/07/2022,03:23:27,0.002,0.0,0.0,0.0
16/07/2022,03:24:28,0.002,0.0,0.0,0.0
16/07/2022,03:25:27,0.001,0.0,0.0,0.0
16/07/2022,03:26:27,0.000,0.0,0.0,0.0
16/07/2022,03:27:27,0.001,0.0,0.0,0.0
16/07/2022,03:28:35,0.001,0.0,0.0,0.0
16/07/2022,03:29:27,0.001,0.0,0.0,0.0
16/07/2022,03:30:27,0.001,0.0,0.0,0.0
16/07/2022,03:31:27,0.001,0.0,0.0,0.0
16/07/2022,03:32:27,0.001,0.0,0.0,0.0
16/07/2022,03:33:27,0.001,0.0,0.0,0.0
16/07/2022,03:34:27,0.001,0.0,0.0,0.0
16/07/2022,03:35:27,0.001,0.0,0.0,0.0
16/07/2022,03:36:27,0.001,0.0,0.0,0.0
16/07/2022,03:37:27,0.001,0.0,0.0,0.0
16/07/2022,03:38:27,0.001,0.0,0.0,0.0
16/07/2022,03:39:27,0.001,0.0,0.0,0.0
16/07/2022,03:40:27,-0.000,0.0,0.0,0.0
16/07/2022,03:41:35,0.001,0.0,0.0,0.0
16/07/2022,03:42:27,0.001,0.0,0.0,0.0
16/07/2022,03:43:35,0.000,0.0,0.0,0.0
16/07/2022,03:44:27,0.000,0.0,0.0,0.0
16/07/2022,03:45:27,0.001,0.0,0.0,0.0
16/07/2022,03:46:27,0.001,0.0,0.0,0.0
16/07/2022,03:47:27,0.001,0.0,0.0,0.0
16/07/2022,03:48:27,0.001,0.0,0.0,0.0
16/07/2022,03:49:28,0.001,0.0,0.0,0.0
16/07/2022,03:50:27,0.002,0.0,0.0,0.0
16/07/2022,03:51:28,0.002,0.0,0.0,0.0
16/07/2022,03:52:27,0.000,0.0,0.0,0.0
16/07/2022,03:53:35,0.001,0.0,0.0,0.0
16/07/2022,03:54:27,0.001,0.0,0.0,0.0
16/07/2022,03:55:28,0.001,0.0,0.0,0.0
16/07/2022,03:56:27,0.001,0.0,0.0,0.0
16/07/2022,03:57:27,0.001,0.0,0.0,0.0
16/07/2022,03:58:27,0.002,0.0,0.0,0.0
16/07/2022,03:59:36,0.001,0.0,0.0,0.0
16/07/2022,04:00:27,0.001,0.0,0.0,0.0
16/07/2022,04:01:27,0.003,0.0,0.0,0.0
16/07/2022,04:02:27,0.002,0.0,0.0,0.0
16/07/2022,04:03:27,0.002,0.0,0.0,0.0
16/07/2022,04:04:28,0.002,0.0,0.0,0.0
16/07/2022,04:05:28,0.002,0.0,0.0,0.0
16/07/2022,04:06:27,0.002,0.0,0.0,0.0
16/07/2022,04:07:27,0.003,0.0,0.0,0.0
16/07/2022,04:08:27,0.003,0.0,0.0,0.0
16/07/2022,04:09:27,0.002,0.0,0.0,0.0
16/07/2022,04:10:27,0.002,0.0,0.0,0.0
16/07/2022,04:11:27,0.003,0.0,0.0,0.0
16/07/2022,04:12:28,0.003,0.0,0.0,0.0
16/07/2022,04:13:27,0.003,0.0,0.0,0.0
16/07/2022,04:14:35,0.003,0.0,0.0,0.0
16/07/2022,04:15:27,0.002,0.0,0.0,0.0
16/07/2022,04:16:27,0.003,0.0,0.0,0.0
16/07/2022,04:17:36,0.003,0.0,0.0,0.0
16/07/2022,04:18:27,0.004,0.0,0.0,0.0
16/07/2022,04:19:27,0.004,0.0,0.0,0.0
16/07/2022,04:20:27,0.004,0.0,0.0,0.0
16/07/2022,04:21:28,0.004,0.0,0.0,0.0
16/07/2022,04:22:27,0.004,0.0,0.0,0.0
16/07/2022,04:23:27,0.005,0.0,0.0,0.0
16/07/2022,04:24:27,0.004,0.0,0.0,0.0
16/07/2022,04:25:27,0.005,0.0,0.0,0.0
16/07/2022,04:26:35,0.004,0.0,0.0,0.0
16/07/2022,04:27:28,0.005,0.0,0.0,0.0
16/07/2022,04:28:27,0.006,0.0,0.0,0.0
16/07/2022,04:29:28,0.005,0.0,0.0,0.0
16/07/2022,04:30:28,0.007,0.0,0.0,0.0
16/07/2022,04:31:27,0.006,0.0,0.0,0.0
16/07/2022,04:32:27,0.007,0.0,0.0,0.0
16/07/2022,04:33:27,0.007,0.0,0.0,0.0
16/07/2022,04:34:27,0.007,0.0,0.0,0.0
16/07/2022,04:35:27,0.007,0.0,0.001,0.001
16/07/2022,04:36:28,0.008,0.0,0.001,0.0
16/07/2022,04:37:27,0.008,0.0,0.001,0.0
16/07/2022,04:38:36,0.008,0.0,0.001,0.0
16/07/2022,04:40:27,0.009,0.0,0.001,0.0
16/07/2022,04:41:27,0.009,0.0,0.001,0.0
16/07/2022,04:42:27,0.010,0.0,0.002,0.001
16/07/2022,04:43:28,0.010,0.0,0.002,0.0
16/07/2022,04:44:27,0.009,0.0,0.002,0.0
16/07/2022,04:45:27,0.010,0.0,0.002,0.0
16/07/2022,04:46:28,0.012,0.0,0.002,0.0
16/07/2022,04:47:27,0.011,0.0,0.002,0.0
16/07/2022,04:48:35,0.012,0.0,0.003,0.001
16/07/2022,04:49:28,0.012,0.0,0.003,0.0
16/07/2022,04:50:28,0.013,0.0,0.003,0.0
16/07/2022,04:51:35,0.014,0.0,0.003,0.0
16/07/2022,04:52:27,0.014,0.0,0.003,0.0
16/07/2022,04:53:27,0.014,0.0,0.004,0.001
16/07/2022,04:54:27,0.015,0.0,0.004,0.0
16/07/2022,04:55:27,0.016,0.0,0.004,0.0
16/07/2022,04:56:27,0.015,0.0,0.004,0.0
16/07/2022,04:57:28,0.016,0.0,0.005,0.001
16/07/2022,04:58:28,0.017,0.0,0.005,0.0
16/07/2022,04:59:27,0.017,0.0,0.005,0.0
16/07/2022,05:00:27,0.017,0.0,0.006,0.001
16/07/2022,05:01:35,0.018,0.0,0.006,0.0
16/07/2022,05:02:28,0.018,0.0,0.006,0.0
16/07/2022,05:03:27,0.019,0.0,0.006,0.0
16/07/2022,05:04:27,0.020,0.0,0.007,0.001
16/07/2022,05:05:28,0.022,0.0,0.007,0.0
16/07/2022,05:06:28,0.021,0.0,0.007,0.0
16/07/2022,05:07:27,0.023,0.0,0.008,0.001
16/07/2022,05:08:28,0.024,0.0,0.008,0.0
16/07/2022,05:09:36,0.023,0.0,0.009,0.001
16/07/2022,05:11:28,0.025,0.0,0.009,0.0
16/07/2022,05:12:36,0.025,0.0,0.01,0.001
16/07/2022,05:13:27,0.025,0.0,0.01,0.0
16/07/2022,05:14:29,0.027,0.0,0.011,0.001
16/07/2022,05:15:27,0.028,0.0,0.011,0.0
16/07/2022,05:16:28,0.030,0.0,0.012,0.001
16/07/2022,05:17:28,0.030,0.0,0.012,0.0
16/07/2022,05:18:27,0.030,0.0,0.013,0.001
16/07/2022,05:19:27,0.031,0.0,0.013,0.0
16/07/2022,05:20:28,0.031,0.0,0.014,0.001
16/07/2022,05:21:27,0.033,0.0,0.014,0.0
16/07/2022,05:22:36,0.034,0.0,0.015,0.001
16/07/2022,05:23:27,0.034,0.0,0.015,0.0
16/07/2022,05:24:27,0.035,0.0,0.016,0.001
16/07/2022,05:25:36,0.037,0.0,0.017,0.001
16/07/2022,05:27:28,0.039,0.0,0.018,0.001
16/07/2022,05:28:35,0.040,0.0,0.019,0.001
16/07/2022,05:29:28,0.042,0.0,0.019,0.0
16/07/2022,05:30:29,0.042,0.0,0.02,0.001
16/07/2022,05:31:27,0.044,0.0,0.021,0.001
16/07/2022,05:32:27,0.045,0.0,0.021,0.0
16/07/2022,05:33:27,0.046,0.0,0.022,0.001
16/07/2022,05:34:28,0.047,0.0,0.023,0.001
16/07/2022,05:35:28,0.049,0.0,0.024,0.001
16/07/2022,05:36:27,0.050,0.0,0.024,0.0
16/07/2022,05:37:28,0.050,0.0,0.025,0.001
16/07/2022,05:38:28,0.053,0.0,0.026,0.001
16/07/2022,05:39:27,0.054,0.0,0.027,0.001
16/07/2022,05:40:28,0.055,0.0,0.028,0.001
16/07/2022,05:41:27,0.057,0.0,0.029,0.001
16/07/2022,05:42:28,0.058,0.0,0.03,0.001
16/07/2022,05:43:36,0.060,0.0,0.031,0.001
16/07/2022,05:44:27,0.061,0.0,0.032,0.001
16/07/2022,05:45:27,0.062,0.0,0.033,0.001
16/07/2022,05:46:29,0.063,0.0,0.034,0.001
16/07/2022,05:47:27,0.064,0.0,0.035,0.001
16/07/2022,05:48:28,0.066,0.0,0.036,0.001
16/07/2022,05:49:28,0.069,0.0,0.037,0.001
16/07/2022,05:50:27,0.070,0.0,0.038,0.001
16/07/2022,05:51:27,0.071,0.0,0.04,0.002
16/07/2022,05:52:27,0.073,0.0,0.041,0.001
16/07/2022,05:53:35,0.075,0.0,0.042,0.001
16/07/2022,05:54:27,0.077,0.0,0.043,0.001
16/07/2022,05:55:27,0.078,0.0,0.045,0.002
16/07/2022,05:56:28,0.080,0.0,0.046,0.001
16/07/2022,05:57:27,0.082,0.0,0.047,0.001
16/07/2022,05:58:27,0.083,0.0,0.049,0.002
16/07/2022,05:59:35,0.084,0.0,0.05,0.001
16/07/2022,06:00:28,0.085,0.0,0.051,0.001
16/07/2022,06:01:29,0.087,0.0,0.053,0.002
16/07/2022,06:02:27,0.089,0.0,0.054,0.001
16/07/2022,06:03:27,0.091,0.0,0.056,0.002
16/07/2022,06:04:27,0.093,0.0,0.057,0.001
16/07/2022,06:05:27,0.096,0.0,0.059,0.002
16/07/2022,06:06:27,0.099,0.0,0.06,0.001
16/07/2022,06:07:27,0.102,0.0,0.062,0.002
16/07/2022,06:08:28,0.105,0.0,0.064,0.002
16/07/2022,06:09:27,0.107,0.0,0.066,0.002
16/07/2022,06:10:27,0.109,0.0,0.067,0.001
16/07/2022,06:11:27,0.112,0.0,0.069,0.002
16/07/2022,06:12:27,0.114,0.0,0.071,0.002
16/07/2022,06:13:28,0.116,0.0,0.073,0.002
16/07/2022,06:14:36,0.119,0.0,0.075,0.002
16/07/2022,06:15:27,0.122,0.0,0.077,0.002
16/07/2022,06:16:28,0.123,0.0,0.079,0.002
16/07/2022,06:17:27,0.126,0.0,0.081,0.002
16/07/2022,06:18:28,0.128,0.0,0.083,0.002
16/07/2022,06:19:28,0.130,0.0,0.085,0.002
16/07/2022,06:20:27,0.133,0.0,0.088,0.003
16/07/2022,06:21:28,0.134,0.0,0.09,0.002
16/07/2022,06:22:27,0.138,0.0,0.092,0.002
16/07/2022,06:23:28,0.141,0.0,0.094,0.002
16/07/2022,06:24:27,0.144,0.0,0.097,0.003
16/07/2022,06:25:27,0.146,0.0,0.099,0.002
16/07/2022,06:26:27,0.149,0.0,0.102,0.003
16/07/2022,06:27:36,0.152,0.0,0.104,0.002
16/07/2022,06:29:28,0.159,0.0,0.109,0.005
16/07/2022,06:30:36,0.161,0.0,0.112,0.003
16/07/2022,06:31:27,0.163,0.0,0.115,0.003
16/07/2022,06:32:28,0.168,0.0,0.117,0.002
16/07/2022,06:33:29,0.169,0.0,0.12,0.003
16/07/2022,06:34:27,0.173,0.0,0.123,0.003
16/07/2022,06:35:28,0.174,0.0,0.126,0.003
16/07/2022,06:36:27,0.178,0.0,0.129,0.003
16/07/2022,06:37:28,0.181,0.0,0.132,0.003
16/07/2022,06:38:27,0.183,0.0,0.135,0.003
16/07/2022,06:39:28,0.187,0.0,0.138,0.003
16/07/2022,06:40:27,0.190,0.0,0.141,0.003
16/07/2022,06:41:28,0.194,0.0,0.144,0.003
16/07/2022,06:42:27,0.198,0.0,0.148,0.004
16/07/2022,06:43:28,0.199,0.0,0.151,0.003
16/07/2022,06:44:27,0.205,0.0,0.154,0.003
16/07/2022,06:45:28,0.208,0.0,0.158,0.004
16/07/2022,06:46:27,0.212,0.0,0.161,0.003
16/07/2022,06:47:27,0.214,0.0,0.165,0.004
16/07/2022,06:48:36,0.218,1.0,0.169,0.004
16/07/2022,06:49:27,0.221,1.0,0.172,0.003
16/07/2022,06:50:28,0.226,1.0,0.176,0.004
16/07/2022,06:51:28,0.230,1.0,0.18,0.004
16/07/2022,06:52:27,0.234,1.0,0.183,0.003
16/07/2022,06:53:28,0.235,1.0,0.187,0.004
16/07/2022,06:54:27,0.240,1.0,0.191,0.004
16/07/2022,06:55:28,0.245,1.0,0.195,0.004
16/07/2022,06:56:27,0.247,1.0,0.199,0.004
16/07/2022,06:57:28,0.251,1.0,0.204,0.005
16/07/2022,06:58:27,0.256,1.0,0.208,0.004
16/07/2022,06:59:27,0.260,1.0,0.212,0.004
16/07/2022,07:00:28,0.265,1.0,0.217,0.005
16/07/2022,07:01:27,0.269,1.0,0.221,0.004
16/07/2022,07:02:28,0.273,1.0,0.225,0.004
16/07/2022,07:03:28,0.276,1.0,0.23,0.005
16/07/2022,07:04:36,0.282,1.0,0.235,0.005
16/07/2022,07:05:27,0.286,1.0,0.239,0.004
16/07/2022,07:06:27,0.292,1.0,0.244,0.005
16/07/2022,07:07:36,0.297,1.0,0.25,0.006
16/07/2022,07:08:27,0.216,0.0,0.253,0.003
16/07/2022,07:09:27,0.304,1.0,0.258,0.005
16/07/2022,07:10:27,0.311,1.0,0.263,0.005
16/07/2022,07:11:27,0.315,1.0,0.268,0.005
16/07/2022,07:12:28,0.320,1.0,0.274,0.006
16/07/2022,07:13:28,0.326,1.0,0.279,0.005
16/07/2022,07:14:28,0.330,1.0,0.284,0.005
16/07/2022,07:15:27,0.335,1.0,0.29,0.006
16/07/2022,07:16:27,0.340,1.0,0.296,0.006
16/07/2022,07:17:40,0.346,1.0,0.302,0.006
16/07/2022,07:19:29,0.356,1.0,0.313,0.011
16/07/2022,07:20:28,0.362,1.0,0.319,0.006
16/07/2022,07:21:27,0.367,1.0,0.325,0.006
16/07/2022,07:22:36,0.374,1.0,0.332,0.007
16/07/2022,07:23:28,0.378,1.0,0.337,0.005
16/07/2022,07:24:28,0.383,1.0,0.344,0.007
16/07/2022,07:25:28,0.387,1.0,0.35,0.006
16/07/2022,07:26:27,0.393,1.0,0.357,0.007
16/07/2022,07:27:28,0.399,1.0,0.363,0.006
16/07/2022,07:28:27,0.404,1.0,0.37,0.007
16/07/2022,07:29:27,0.410,1.0,0.377,0.007
16/07/2022,07:30:28,0.417,1.0,0.384,0.007
16/07/2022,07:31:27,0.421,1.0,0.391,0.007
16/07/2022,07:32:28,0.427,1.0,0.398,0.007
16/07/2022,07:33:44,0.436,1.0,0.407,0.009
16/07/2022,07:35:28,0.446,1.0,0.42,0.013
16/07/2022,07:36:28,0.451,1.0,0.427,0.007
16/07/2022,07:37:27,0.457,1.0,0.435,0.008
16/07/2022,07:38:36,0.464,1.0,0.443,0.008
16/07/2022,07:39:28,0.470,1.0,0.45,0.007
16/07/2022,07:40:35,0.475,1.0,0.459,0.009
16/07/2022,07:41:28,0.482,1.0,0.466,0.007
16/07/2022,07:42:27,0.489,1.0,0.474,0.008
16/07/2022,07:43:28,0.496,1.0,0.482,0.008
16/07/2022,07:44:28,0.501,1.0,0.491,0.009
16/07/2022,07:45:40,0.511,1.0,0.501,0.01
16/07/2022,07:47:29,0.522,1.0,0.516,0.015
16/07/2022,07:48:28,0.529,1.0,0.525,0.009
16/07/2022,07:49:28,0.537,1.0,0.534,0.009
16/07/2022,07:50:28,0.543,1.0,0.543,0.009
16/07/2022,07:51:28,0.548,1.0,0.552,0.009
16/07/2022,07:52:28,0.555,1.0,0.561,0.009
16/07/2022,07:53:36,0.562,1.0,0.572,0.011
16/07/2022,07:54:27,0.569,1.0,0.58,0.008
16/07/2022,07:55:28,0.574,1.0,0.589,0.009
16/07/2022,07:56:28,0.583,1.0,0.599,0.01
16/07/2022,07:57:27,0.590,1.0,0.609,0.01
16/07/2022,07:58:27,0.597,1.0,0.618,0.009
16/07/2022,07:59:27,0.602,1.0,0.629,0.011
16/07/2022,08:00:28,0.610,1.0,0.639,0.01
16/07/2022,08:01:27,0.616,1.0,0.649,0.01
16/07/2022,08:02:28,0.626,1.0,0.659,0.01
16/07/2022,08:03:28,0.632,1.0,0.67,0.011
16/07/2022,08:04:28,0.638,1.0,0.68,0.01
16/07/2022,08:05:28,0.647,1.0,0.691,0.011
16/07/2022,08:06:28,0.654,2.0,0.702,0.011
16/07/2022,08:07:28,0.660,2.0,0.713,0.011
16/07/2022,08:08:28,0.667,2.0,0.724,0.011
16/07/2022,08:09:27,0.675,2.0,0.735,0.011
16/07/2022,08:10:28,0.682,2.0,0.746,0.011
16/07/2022,08:11:36,0.690,2.0,0.759,0.013
16/07/2022,08:12:27,0.697,2.0,0.769,0.01
16/07/2022,08:13:28,0.704,2.0,0.781,0.012
16/07/2022,08:14:38,0.713,2.0,0.795,0.014
16/07/2022,08:15:28,0.719,2.0,0.805,0.01
16/07/2022,08:16:27,0.726,2.0,0.817,0.012
16/07/2022,08:17:28,0.736,2.0,0.829,0.012
16/07/2022,08:18:28,0.742,2.0,0.841,0.012
16/07/2022,08:19:27,0.750,2.0,0.854,0.013
16/07/2022,08:20:44,0.760,2.0,0.87,0.016
16/07/2022,08:22:28,0.771,2.0,0.892,0.022
16/07/2022,08:23:28,0.780,2.0,0.905,0.013
16/07/2022,08:24:44,0.788,2.0,0.921,0.016
16/07/2022,08:26:28,0.803,2.0,0.944,0.023
16/07/2022,08:27:27,0.810,2.0,0.958,0.014
16/07/2022,08:28:28,0.818,2.0,0.971,0.013
16/07/2022,08:29:28,0.825,2.0,0.985,0.014
16/07/2022,08:30:36,0.833,2.0,1.001,0.016
16/07/2022,08:31:28,0.843,2.0,1.013,0.012
16/07/2022,08:32:36,0.851,2.0,1.029,0.016
16/07/2022,08:34:28,0.864,2.0,1.055,0.026
16/07/2022,08:35:28,0.874,2.0,1.07,0.015
16/07/2022,08:36:27,0.884,2.0,1.085,0.015
16/07/2022,08:37:27,0.891,2.0,1.099,0.014
16/07/2022,08:38:28,0.901,2.0,1.114,0.015
16/07/2022,08:39:28,0.910,2.0,1.129,0.015
16/07/2022,08:40:28,0.914,2.0,1.145,0.016
16/07/2022,08:41:28,0.923,2.0,1.16,0.015
16/07/2022,08:42:27,0.933,2.0,1.175,0.015
16/07/2022,08:43:27,0.942,2.0,1.191,0.016
16/07/2022,08:44:27,0.949,2.0,1.207,0.016
16/07/2022,08:45:36,0.958,2.0,1.225,0.018
16/07/2022,08:46:29,0.968,2.0,1.239,0.014
16/07/2022,08:47:28,0.977,2.0,1.255,0.016
16/07/2022,08:48:28,0.986,2.0,1.271,0.016
16/07/2022,08:49:27,0.993,2.0,1.288,0.017
16/07/2022,08:50:20,1.000,2.0,1.302,0.014
16/07/2022,08:51:28,1.006,2.0,1.321,0.019
16/07/2022,08:52:28,1.015,2.0,1.338,0.017
16/07/2022,08:53:28,1.023,2.0,1.355,0.017
16/07/2022,08:54:28,1.033,2.0,1.372,0.017
16/07/2022,08:55:27,1.042,2.0,1.389,0.017
16/07/2022,08:56:28,1.048,2.0,1.407,0.018
16/07/2022,08:57:28,1.058,2.0,1.424,0.017
16/07/2022,08:58:28,1.063,2.0,1.442,0.018
16/07/2022,08:59:28,1.067,2.0,1.46,0.018
16/07/2022,09:00:36,1.080,2.0,1.48,0.02
16/07/2022,09:01:27,1.088,3.0,1.496,0.016
16/07/2022,09:02:28,1.097,3.0,1.514,0.018
16/07/2022,09:03:36,1.107,3.0,1.535,0.021
16/07/2022,09:05:29,1.123,3.0,1.569,0.034
16/07/2022,09:06:28,1.127,3.0,1.588,0.019
16/07/2022,09:07:28,1.138,3.0,1.607,0.019
16/07/2022,09:08:28,1.147,3.0,1.626,0.019
16/07/2022,09:09:28,1.156,3.0,1.645,0.019
16/07/2022,09:10:27,1.163,3.0,1.665,0.02
16/07/2022,09:11:28,1.171,3.0,1.684,0.019
16/07/2022,09:12:28,1.179,3.0,1.704,0.02
16/07/2022,09:13:27,1.186,3.0,1.723,0.019
16/07/2022,09:14:28,1.198,3.0,1.743,0.02
16/07/2022,09:15:28,1.206,3.0,1.763,0.02
16/07/2022,09:16:27,1.214,3.0,1.783,0.02
16/07/2022,09:17:28,1.224,3.0,1.804,0.021
16/07/2022,09:18:28,1.233,3.0,1.824,0.02
16/07/2022,09:19:28,1.241,3.0,1.845,0.021
16/07/2022,09:20:28,1.256,3.0,1.866,0.021
16/07/2022,09:21:36,1.267,3.0,1.89,0.024
16/07/2022,09:22:28,1.271,3.0,1.908,0.018
16/07/2022,09:23:28,1.277,3.0,1.929,0.021
16/07/2022,09:24:28,1.288,3.0,1.95,0.021
16/07/2022,09:25:28,1.298,3.0,1.972,0.022
16/07/2022,09:26:28,1.303,3.0,1.994,0.022
16/07/2022,09:27:28,1.314,3.0,2.016,0.022
16/07/2022,09:28:27,1.322,3.0,2.038,0.022
16/07/2022,09:29:28,1.332,3.0,2.06,0.022
16/07/2022,09:30:28,1.340,3.0,2.082,0.022
16/07/2022,09:31:28,1.350,3.0,2.104,0.022
16/07/2022,09:32:27,1.361,3.0,2.127,0.023
16/07/2022,09:33:28,1.368,3.0,2.15,0.023
16/07/2022,09:34:27,1.375,3.0,2.172,0.022
16/07/2022,09:35:27,1.385,3.0,2.195,0.023
16/07/2022,09:36:28,1.394,3.0,2.219,0.024
16/07/2022,09:37:27,1.405,3.0,2.242,0.023
16/07/2022,09:38:27,1.412,3.0,2.265,0.023
16/07/2022,09:39:28,1.421,3.0,2.289,0.024
16/07/2022,09:40:28,1.428,3.0,2.313,0.024
16/07/2022,09:41:27,1.438,3.0,2.337,0.024
16/07/2022,09:42:36,1.446,3.0,2.364,0.027
16/07/2022,09:43:27,1.452,3.0,2.385,0.021
16/07/2022,09:44:28,1.459,3.0,2.409,0.024
16/07/2022,09:45:36,1.467,3.0,2.437,0.028
16/07/2022,09:46:28,1.474,3.0,2.458,0.021
16/07/2022,09:47:28,1.488,3.0,2.483,0.025
16/07/2022,09:48:28,1.497,3.0,2.508,0.025
16/07/2022,09:49:41,1.509,3.0,2.538,0.03
16/07/2022,09:51:29,1.524,4.0,2.583,0.045
16/07/2022,09:52:45,1.533,4.0,2.615,0.032
16/07/2022,09:54:29,1.544,4.0,2.66,0.045
16/07/2022,09:55:28,1.555,4.0,2.686,0.026
16/07/2022,09:56:27,1.564,4.0,2.712,0.026
16/07/2022,09:57:28,1.575,4.0,2.738,0.026
16/07/2022,09:58:27,1.582,4.0,2.764,0.026
16/07/2022,09:59:27,1.590,4.0,2.791,0.027
16/07/2022,10:00:28,1.599,4.0,2.817,0.026
16/07/2022,10:01:28,1.609,4.0,2.844,0.027
16/07/2022,10:02:28,1.619,4.0,2.871,0.027
16/07/2022,10:03:27,1.629,4.0,2.898,0.027
16/07/2022,10:04:28,1.637,4.0,2.925,0.027
16/07/2022,10:05:27,1.636,4.0,2.952,0.027
16/07/2022,10:06:28,1.647,4.0,2.98,0.028
16/07/2022,10:07:28,1.657,4.0,3.007,0.027
16/07/2022,10:08:28,1.662,4.0,3.035,0.028
16/07/2022,10:09:36,1.676,4.0,3.066,0.031
16/07/2022,10:10:28,1.682,4.0,3.091,0.025
16/07/2022,10:11:28,1.686,4.0,3.119,0.028
16/07/2022,10:12:28,1.697,4.0,3.147,0.028
16/07/2022,10:13:28,1.701,4.0,3.175,0.028
16/07/2022,10:14:27,1.711,4.0,3.204,0.029
16/07/2022,10:15:28,1.719,4.0,3.232,0.028
16/07/2022,10:16:27,1.727,4.0,3.261,0.029
16/07/2022,10:17:28,1.734,4.0,3.29,0.029
16/07/2022,10:18:28,1.744,4.0,3.319,0.029
16/07/2022,10:19:28,1.750,4.0,3.348,0.029
16/07/2022,10:20:27,1.759,4.0,3.377,0.029